Flag for Germany Weather past 2 weeks in Gladbeck, North Rhine-Westphalia, Germany

Now
92 °F

Partly sunny.


Feels Like: 89 °F
Forecast: 59 / 74 °F
Wind: 7 mph from Southeast

Location: Duesseldorf

Current Time: Aug 3, 2015 at 4:18:09 PM

Latest Report: Aug 3, 2015 at 3:00 PM


Visibility: 25 mi

Pressure: 29.93 "Hg

Humidity: 27%

Dew point: 53 °F

Location of GladbeckLocation

Historic Weather in Gladbeck — Graph

°F

Gladbeck temperature yesterday

Maximum temperature yesterday: 81 °F (at 5:00 PM)
Minimum temperature yesterday: 50 °F (at 4:00 AM)
Average temperature yesterday: 71 °F

Past Weeks' High & Low Weather Summary

 TemperatureHumidityPressure
High92 °F (Aug 3, 3:00 PM)98% (Jul 31, 4:00 AM)30.16 "Hg (Jul 31, 4:00 AM)
Low46 °F (Jul 31, 4:00 AM)26% (Aug 2, 5:00 PM)29.50 "Hg (Jul 25, 7:00 AM)
Average65 °F66%29.90 "Hg
* Reported Jul 19 3:00 PM — Aug 3 3:00 PM, Gladbeck, Weather by CustomWeather, © 2015

Note: Actual official high and low records may vary slightly from our data, if they occured in-between our weather recording intervals... More about our weather records

Advertising

Gladbeck weather history for previous 24 hours

 ConditionsComfort  
Time TempWeatherWind HumidityBarometerVisibility
3:00 PM
Mon, Aug 3
92 °FPartly sunny.7 mph27%29.93 "Hg25 mi
2:00 PM89 °FScattered clouds.1 mph28%29.94 "Hg25 mi
1:00 PM87 °FScattered clouds.5 mph32%29.96 "Hg31 mi
12:00 PM84 °FPassing clouds.6 mph35%29.97 "Hg31 mi
11:00 AM82 °FPassing clouds.6 mph37%29.97 "Hg31 mi
10:00 AM78 °FPassing clouds.6 mph39%29.98 "Hg31 mi
9:00 AM73 °FPassing clouds.8 mph46%29.98 "Hg31 mi
8:00 AM70 °FPassing clouds.6 mph48%29.98 "Hg31 mi
7:00 AM68 °FPassing clouds.6 mph52%29.98 "Hg31 mi
6:00 AM67 °FScattered clouds.5 mph56%29.98 "Hg25 mi
4:00 AM64 °FPassing clouds.3 mph68%30.00 "Hg25 mi
3:00 AM59 °FPassing clouds.2 mph79%30.02 "Hg25 mi
2:00 AM60 °FPassing clouds.1 mph73%30.02 "Hg25 mi
1:00 AM64 °FPassing clouds.1 mph64%30.03 "Hg25 mi
10:00 PM
Sun, Aug 2
72 °FPassing clouds.3 mph44%30.04 "Hg25 mi
9:00 PM75 °FPartly sunny.3 mph40%30.03 "Hg25 mi
8:00 PM80 °FPartly sunny.3 mph33%30.04 "Hg25 mi
7:00 PM81 °FPartly sunny.2 mph31%30.06 "Hg25 mi
6:00 PM81 °FOvercast.2 mph29%30.07 "Hg25 mi
5:00 PM81 °FOvercast.2 mph26%30.08 "Hg28 mi
4:00 PM79 °FPartly sunny.2 mph28%30.09 "Hg28 mi
Weather by CustomWeather, © 2015

See weather overviewHow to use our weather pages